This demonstration page uses our WeatherBlox Daily Observations layout. Learn more.

41.55636, -103.73856

Hourly Observations for October 30, 2016

Temp ( °F °C ) Dew Point ( °F °C ) Humidity (%) Winds ( mph kmh ) Pressure ( in mb ) Visibility ( mi km ) Precip ( " mm )
12:53 am 00:53 Cloudy 45 7.2 41 5 86 86 SSE 7 11 30.22 1023 10 16.0934 0 0
1:53 am 01:53 Cloudy 46 7.8 41 5 83 83 S 9 15 30.2 1023 10 16.0934 0 0
2:53 am 02:53 Cloudy 46 7.8 41 5 83 83 S 8 13 30.19 1023 10 16.0934 0 0
3:53 am 03:53 Cloudy 46 7.8 41 5 83 83 SE 10 17 30.16 1021 10 16.0934 0 0
4:53 am 04:53 Cloudy 46 7.8 41 5 83 83 SE 9 15 30.16 1022 10 16.0934 0 0
5:25 am 05:25 Cloudy 46 7.8 41 5 83 83 SE 9 15 30.15 1021 10 16.0934 0 0
5:53 am 05:53 Mostly Cloudy 45 7.2 41 5 86 86 SE 9 15 30.17 1022 10 16.0934 0 0
6:04 am 06:04 Partly Cloudy 45 7 39 4 81 81 ESE 8 13 30.18 1022 10 16.0934 0 0
6:53 am 06:53 Clear 43 6.1 40 4.4 89 89 ESE 8 13 30.15 1021 10 16.0934 0 0
7:53 am 07:53 Sunny 43 6.1 40 4.4 89 89 ESE 7 11 30.15 1021 10 16.0934 0 0
8:53 am 08:53 Mostly Cloudy 47 8.3 42 5.6 83 83 ESE 8 13 30.15 1021 10 16.0934 0 0
9:53 am 09:53 Mostly Cloudy 51 10.6 42 5.6 71 71 SE 10 17 30.13 1020 10 16.0934 0 0
10:53 am 10:53 Sunny 55 12.8 43 6.1 64 64 SE 12 19 30.09 1019 10 16.0934 0 0
11:53 am 11:53 Sunny 60 15.6 44 6.7 56 56 SSE 7 11 30.06 1018 10 16.0934 0 0
12:53 pm 12:53 Sunny 64 17.8 44 6.7 48 48 ESE 8 13 30.01 1016 10 16.0934 0 0
1:53 pm 13:53 Sunny 66 18.9 44 6.7 45 45 E 9 15 29.98 1015 10 16.0934 0 0
2:53 pm 14:53 Mostly Sunny 68 20 44 6.7 42 42 E 10 17 29.93 1014 10 16.0934 0 0
3:53 pm 15:53 Mostly Cloudy 69 20.6 44 6.7 41 41 ESE 8 13 29.9 1013 10 16.0934 0 0
4:53 pm 16:53 Sunny 67 19.4 45 7.2 45 45 E 10 17 29.89 1012 10 16.0934 0 0
5:53 pm 17:53 Partly Cloudy 63 17.2 45 7.2 52 52 ESE 12 19 29.89 1012 10 16.0934 0 0
6:53 pm 18:53 Clear 60 15.6 44 6.7 56 56 ESE 13 20 29.89 1012 10 16.0934 0 0
7:53 pm 19:53 Clear 57 13.9 45 7.2 64 64 ESE 10 17 29.88 1012 10 16.0934 0 0
8:53 pm 20:53 Clear 54 12.2 45 7.2 72 72 ESE 10 17 29.85 1011 10 16.0934 0 0
9:53 pm 21:53 Mostly Clear 53 11.7 44 6.7 72 72 E 10 17 29.81 1010 10 16.0934 0 0
10:53 pm 22:53 Clear 50 10 42 5.6 74 74 ENE 8 13 29.78 1009 10 16.0934 0 0
11:53 pm 23:53 Clear 50 10 40 4.4 68 68 ENE 9 15 29.75 1007 10 16.0934 0 0

Powered by AerisWeather